Flag for U.S.A. Weather past 2 weeks in Bakersfield, California, U.S.A.

Now
88 °F

Sunny.


Feels Like: 86 °F
Forecast: 68 / 94 °F
Wind: 7 mph from North

Location: Meadows Field

Current Time: Aug 21, 2014 at 1:32:13 PM

Latest Report: Aug 21, 2014 at 12:54 PM


Visibility: 10 mi

Pressure: 29.88 "Hg

Humidity: 29%

Dew point: 52 °F

Location of BakersfieldLocation

Historic Weather in Bakersfield — Graph

°F

Bakersfield temperature yesterday

Maximum temperature yesterday: 92 °F (at 2:54 PM)
Minimum temperature yesterday: 68 °F (at 4:54 AM)
Average temperature yesterday: 80 °F

Past Weeks' High & Low Weather Summary

 TemperatureHumidityPressure
High102 °F (Aug 9, 3:54 PM)55% (Aug 7, 5:54 AM)29.99 "Hg (Aug 7, 5:54 AM)
Low67 °F (Aug 21, 5:54 AM)9% (Aug 15, 3:54 PM)29.68 "Hg (Aug 18, 6:54 PM)
Average85 °F30%29.85 "Hg
* Reported Aug 6 11:54 AM — Aug 21 11:54 AM, Bakersfield, Weather by CustomWeather, © 2014

Note: Actual official high and low records may vary slightly from our data, if they occured in-between our weather recording intervals... More about our weather records

Advertising

Bakersfield weather history for previous 24 hours

 ConditionsComfort  
Time TempWeatherWind HumidityBarometerVisibility
11:54 AM
Aug 21
85 °FSunny.5 mph35%29.90 "Hg10 mi
10:54 AM82 °FSunny.5 mph37%29.92 "Hg10 mi
9:54 AM78 °FSunny.No wind40%29.93 "Hg10 mi
8:54 AM74 °FSunny.3 mph45%29.93 "Hg10 mi
7:54 AM71 °FSunny.No wind49%29.92 "Hg10 mi
6:54 AM69 °FClear.3 mph47%29.91 "Hg10 mi
5:54 AM67 °FClear.3 mph47%29.88 "Hg10 mi
4:54 AM70 °FClear.6 mph44%29.88 "Hg10 mi
3:54 AM71 °FClear.9 mph44%29.87 "Hg7 mi
2:54 AM73 °FClear.7 mph40%29.86 "Hg9 mi
1:54 AM76 °FClear.6 mph37%29.85 "Hg10 mi
12:54 AM76 °FClear.8 mph36%29.85 "Hg10 mi
11:54 PM
Aug 20
76 °FClear.8 mph36%29.85 "Hg10 mi
10:54 PM77 °FClear.8 mph37%29.85 "Hg10 mi
9:54 PM80 °FClear.8 mph39%29.83 "Hg10 mi
8:54 PM83 °FClear.5 mph28%29.81 "Hg10 mi
7:54 PM86 °FSunny.8 mph27%29.79 "Hg10 mi
6:54 PM90 °FSunny.13 mph24%29.78 "Hg10 mi
5:54 PM91 °FSunny.13 mph24%29.78 "Hg10 mi
4:54 PM92 °FSunny.16 mph23%29.78 "Hg10 mi
3:54 PM92 °FSunny.13 mph22%29.78 "Hg10 mi
2:54 PM92 °FSunny.12 mph21%29.80 "Hg10 mi
1:54 PM89 °FSunny.8 mph25%29.82 "Hg10 mi
Weather by CustomWeather, © 2014

See weather overviewHow to use our weather pages